Location: Melque
(41.0517°N, 4.4694°W)
Time: 12:14:05
(UTC+00:00)

SKYMED 2 - Pass Details

Date: 14 March 2026
Orbit: 622 x 624 km, 97.9° (Epoch: 14 April)

Event Time Altitude Azimuth Distance (km) Brightness Sun altitude
Rises 19:15:14 0° 360° (N) 2,912 7.1 -10.6°
Reaches altitude 10° 19:17:42 10° 347° (NNW) 2,000 6.4 -11.0°
Maximum altitude 19:21:17 26° 292° (WNW) 1,244 6.1 -11.7°
Drops below altitude 10° 19:24:51 10° 236° (SW) 1,987 6.9 -12.4°
Sets 19:27:18 0° 224° (SW) 2,889 7.5 -12.8°
